[[{"header":{"parameterUnit":"m.s-1","parameterCategory":1,"la1":30.2991,"la2":30.254,"lo1":-89.0895,"lo2":-89.0444,"dy":0.0017,"dx":0.0017,"nx":28,"ny":28,"refTime":"2025-07-04T09:00:00:Z","depth":0,"parameterNumber":2,"parameterNumberName":"U-component_of_WINDS"},"data":[0,0,0,0,0,0,0,0,0,0,0,0,0,0,0,0,0,0,0,0,0,0,0,0,0,0,0,0,0,0,0,0,0,0,0,0,0,0,0,0,0,0,0,0,0,0,0,0,0,0,0,0,0,0,0,0,0,0,-2.4132,-2.4132,0,-2.4124,-2.4124,-2.4124,-2.3997,-2.3994,-2.3991,-2.3988,-2.3983,-2.3985,-2.3988,0,0,0,0,0,0,0,0,0,0,0,0,0,-2.4038,-2.404,-2.4132,-2.4132,-2.4131,-2.4124,-2.4124,-2.4124,-2.3998,-2.3994,-2.399,-2.3986,-2.3982,-2.3985,-2.3988,0,0,0,0,0,0,0,0,0,0,0,0,0,-2.4059,-2.4041,-2.4132,-2.4068,-2.4062,-2.4124,-2.4124,-2.4124,-2.3999,-2.3994,-2.3989,-2.3984,-2.398,-2.3985,-2.3989,-2.4113,0,0,-2.4002,-2.4004,0,0,0,0,0,0,0,0,-2.4058,-2.4063,-2.4077,-2.4072,-2.4066,-2.4057,-2.4089,-2.412,-2.4,-2.4023,-2.3988,-2.3982,-2.4011,-2.4013,-2.4022,-2.4113,-2.4113,-2.4003,-2.4005,-2.4007,-2.4008,0,0,0,0,0,0,0,-2.4057,-2.4063,-2.4129,-2.4077,-2.407,-2.404,-2.4037,-2.4094,-2.4045,-2.402,-2.4011,-2.4012,-2.4007,-2.4018,-2.4021,-2.4113,-2.4002,-2.4006,-2.4009,-2.4011,-2.4305,-2.431,0,0,0,0,0,0,-2.4064,-2.4062,-2.4129,-2.4128,-2.405,-2.4045,-2.4043,-2.4065,-2.4043,-2.4036,-2.4016,-2.4006,-2.4013,-2.4016,-2.402,-2.4165,-2.4007,-2.4011,-2.4014,-2.43,-2.4306,-2.4312,0,0,0,0,0,0,-2.4063,-2.4071,-2.4129,-2.4093,-2.4098,-2.4052,-2.4078,-2.4067,-2.4078,-2.404,-2.4031,-2.4036,-2.401,-2.4014,-2.4091,-2.4163,-2.4013,-2.4017,-2.4294,-2.4302,-2.4309,-2.4455,0,0,0,0,0,0,-2.406,-2.4072,-2.4118,-2.4095,-2.41,-2.42,-2.4082,-2.407,-2.4085,-2.4072,-2.4057,-2.405,-2.4006,-2.4085,-2.4095,-2.4166,-2.402,-2.4287,-2.4297,-2.4306,-2.4444,-2.4467,-2.4487,0,0,0,0,0,-2.4058,-2.416,-2.4121,-2.413,-2.4157,-2.4204,-2.4207,-2.4155,-2.4092,-2.4138,-2.4114,-2.405,-2.4153,-2.4094,-2.4104,-2.4178,-2.4282,-2.4294,-2.4306,-2.4434,-2.4463,-2.4487,0,0,0,0,0,0,-2.4194,-2.4156,-2.4112,-2.421,-2.4211,-2.4183,-2.424,-2.4186,-2.4206,-2.4193,-2.4127,-2.4125,-2.4212,-2.4202,-2.4137,-2.4297,-2.4206,-2.4221,-2.4301,-2.4327,-2.4349,-2.435,-2.4024,0,0,0,0,0,-2.4235,-2.4276,-2.424,-2.433,-2.4333,-2.4287,-2.4305,-2.4264,-2.4263,-2.4263,-2.4245,-2.4247,-2.4279,-2.4302,-2.433,-2.4441,-2.4437,-2.4497,-2.4518,-2.4536,-2.455,-2.4609,-2.4635,-2.435,-2.435,-2.435,0,0,-2.4321,-2.4305,-2.4335,-2.4357,-2.4353,-2.4398,-2.4288,-2.434,-2.4372,-2.4271,-2.4343,-2.4329,-2.4327,-2.4421,-2.4462,-2.4416,-2.4627,-2.4551,-2.4566,-2.457,-2.4624,-2.4651,-2.4675,-2.4358,-2.4357,-2.4356,0,0,-2.4501,-2.4493,-2.4567,-2.4565,-2.456,-2.4529,-2.4547,-2.4526,-2.4513,-2.4583,-2.4508,-2.4546,-2.4604,-2.4605,-2.4614,-2.4794,-2.4736,-2.4804,-2.4918,-2.4976,-2.4999,-2.5018,-2.5084,-2.5108,-2.4818,-2.4818,-2.4819,0,-2.4609,-2.4672,-2.4612,-2.4669,-2.4681,-2.459,-2.4665,-2.4666,-2.4672,-2.4683,-2.463,-2.47,-2.4692,-2.4787,-2.483,-2.484,-2.4859,-2.4807,-2.5,-2.5019,-2.5037,-2.5099,-2.5123,-2.4827,-2.4826,-2.4825,-2.4824,0,-2.4806,-2.4851,-2.4911,-2.4918,-2.4937,-2.5003,-2.4953,-2.4979,-2.4936,-2.491,-2.4983,-2.497,-2.4994,-2.5013,-2.4972,-2.5101,-2.5073,-2.5012,-2.492,-2.5074,-2.5131,-2.5154,-2.4839,-2.4836,-2.4833,-2.4831,0,0,-2.5074,-2.5045,-2.5068,-2.507,-2.5058,-2.5092,-2.5153,-2.5176,-2.52,-2.5206,-2.5257,-2.5307,-2.525,-2.526,-2.5218,-2.5269,-2.5414,-2.5201,-2.52,-2.5242,-2.5557,-2.5605,-2.5633,-2.5374,-2.5378,-2.5382,-2.5558,0,-2.5248,-2.5351,-2.5299,-2.5409,-2.545,-2.5364,-2.5418,-2.5416,-2.5394,-2.5426,-2.54,-2.5438,-2.5359,-2.5364,-2.541,-2.5386,-2.5476,-2.5372,-2.5422,-2.5425,-2.5428,-2.5663,-2.5713,-2.588,-2.5579,-2.5583,-2.5586,0,-2.5466,-2.5481,-2.5596,-2.5576,-2.5591,-2.564,-2.5657,-2.5688,-2.5685,-2.5665,-2.5676,-2.5621,-2.5681,-2.5588,-2.567,-2.5601,-2.5617,-2.5609,-2.5614,-2.5618,-2.5516,-2.5675,-2.5932,-2.5958,-2.562,-2.5617,-2.5615,0,-2.5652,-2.5701,-2.5775,-2.5779,-2.5758,-2.5794,-2.5787,-2.5778,-2.5796,-2.581,-2.582,-2.5842,-2.5855,-2.5873,-2.5826,-2.5763,-2.5915,-2.5818,-2.5901,-2.5902,-2.5938,-2.5937,-2.6203,-2.5946,-2.5946,-2.5946,-2.5945,0,-2.5854,-2.5928,-2.5858,-2.5905,-2.5985,-2.5923,-2.6005,-2.5988,-2.5981,-2.6023,-2.5949,-2.5991,-2.5925,-2.596,-2.5924,-2.5998,-2.6004,-2.599,-2.598,-2.5998,-2.6,-2.6009,-2.5998,-2.5952,-2.5951,-2.5949,-2.5948,0,-2.6076,-2.6032,-2.6108,-2.6081,-2.6076,-2.6136,-2.6113,-2.6155,-2.6126,-2.6181,-2.619,-2.6146,-2.6183,-2.6137,-2.617,-2.6146,-2.6247,-2.6219,-2.6249,-2.6241,-2.6327,-2.6321,-2.6611,-2.6646,-2.6365,-2.6368,-2.637,0,-2.6209,-2.6264,-2.6242,-2.6264,-2.6261,-2.6298,-2.6315,-2.6256,-2.6276,-2.6276,-2.6319,-2.635,-2.6371,-2.6435,-2.6406,-2.6431,-2.6404,-2.6504,-2.6408,-2.6424,-2.6408,-2.6406,-2.6412,-2.6525,-2.6528,-2.6531,-2.6533,0,-2.645,-2.6425,-2.6452,-2.6471,-2.6493,-2.6506,-2.6513,-2.6536,-2.6474,-2.6501,-2.6538,-2.6554,-2.6588,-2.662,-2.6637,-2.663,-2.6573,-2.6563,-2.6584,-2.6604,-2.662,-2.6614,-2.6304,-2.6557,-2.6555,-2.6553,-2.6552,-2.6551,-2.6632,-2.6677,-2.6669,-2.6701,-2.67,-2.6708,-2.6746,-2.6722,-2.6751,-2.6774,-2.6737,-2.6784,-2.6778,-2.6795,-2.6795,-2.6831,-2.6788,-2.6818,-2.6826,-2.6835,-2.6848,-2.6612,-2.6833,-2.6833,-2.6832,-2.6831,-2.6831,0,-2.6871,-2.6861,-2.6891,-2.6903,-2.6928,-2.687,-2.6874,-2.69,-2.6942,-2.6942,-2.6964,-2.7007,-2.7037,-2.7011,-2.7036,-2.707,-2.7044,-2.7079,-2.7077,-2.7076,-2.6884,-2.6865,-2.7099,-2.7099,-2.7099,-2.7099,-2.7099,-2.7099,-2.6998,-2.7071,-2.7045,-2.7117,-2.7106,-2.7151,-2.7159,-2.7167,-2.7166,-2.7217,-2.7241,-2.7223,-2.7213,-2.7236,-2.7262,-2.7253,-2.7267,-2.7311,-2.7294,-2.7116,-2.709,-2.7065,-2.7046,-2.7314,-2.7315,-2.7482,-2.7484,-2.7485]},{"header":{"parameterUnit":"m.s-1","parameterCategory":1,"la1":30.2991,"la2":30.254,"lo1":-89.0895,"lo2":-89.0444,"dy":0.0017,"dx":0.0017,"nx":28,"ny":28,"refTime":"2025-07-04T09:00:00:Z","depth":0,"parameterNumber":3,"parameterNumberName":"V-component_of_WINDS"},"data":[0,0,0,0,0,0,0,0,0,0,0,0,0,0,0,0,0,0,0,0,0,0,0,0,0,0,0,0,0,0,0,0,0,0,0,0,0,0,0,0,0,0,0,0,0,0,0,0,0,0,0,0,0,0,0,0,0,0,-2.7161,-2.7161,0,-2.7128,-2.7128,-2.7127,-2.7049,-2.7047,-2.7045,-2.7044,-2.7013,-2.7014,-2.7014,0,0,0,0,0,0,0,0,0,0,0,0,0,-2.7158,-2.7159,-2.7161,-2.7161,-2.7161,-2.7128,-2.7127,-2.7127,-2.7049,-2.7047,-2.7045,-2.7043,-2.7013,-2.7014,-2.7015,0,0,0,0,0,0,0,0,0,0,0,0,0,-2.7146,-2.7159,-2.7161,-2.7118,-2.7113,-2.7128,-2.7127,-2.7127,-2.7049,-2.7047,-2.7044,-2.7042,-2.7013,-2.7014,-2.7015,-2.7071,0,0,-2.7018,-2.7018,0,0,0,0,0,0,0,0,-2.7147,-2.7146,-2.7124,-2.7121,-2.7116,-2.709,-2.7115,-2.7108,-2.705,-2.7074,-2.7044,-2.7041,-2.7041,-2.7039,-2.7039,-2.7069,-2.7068,-2.7018,-2.7019,-2.7019,-2.7019,0,0,0,0,0,0,0,-2.7148,-2.7147,-2.7148,-2.7124,-2.7119,-2.71,-2.7095,-2.7113,-2.7072,-2.7071,-2.7066,-2.7063,-2.7038,-2.7038,-2.7037,-2.7067,-2.7018,-2.7019,-2.702,-2.702,-2.7138,-2.7141,0,0,0,0,0,0,-2.7155,-2.7148,-2.7149,-2.7147,-2.7125,-2.7102,-2.7097,-2.7101,-2.7071,-2.7064,-2.7065,-2.7059,-2.7037,-2.7036,-2.7036,-2.7097,-2.7019,-2.702,-2.7021,-2.7136,-2.7139,-2.7142,0,0,0,0,0,0,-2.7155,-2.7155,-2.7151,-2.7146,-2.7144,-2.7104,-2.711,-2.7101,-2.7101,-2.7066,-2.7058,-2.7072,-2.7035,-2.7034,-2.7061,-2.7095,-2.7021,-2.7022,-2.7133,-2.7137,-2.714,-2.7221,0,0,0,0,0,0,-2.7155,-2.7156,-2.7177,-2.7147,-2.7145,-2.7177,-2.7112,-2.7102,-2.7103,-2.7095,-2.7071,-2.7065,-2.7033,-2.706,-2.7063,-2.7095,-2.7022,-2.713,-2.7135,-2.7139,-2.7216,-2.7227,-2.7238,0,0,0,0,0,-2.7155,-2.7203,-2.7178,-2.7179,-2.717,-2.7179,-2.7177,-2.7139,-2.7106,-2.7126,-2.7103,-2.7065,-2.7091,-2.7064,-2.7066,-2.7099,-2.7127,-2.7133,-2.7139,-2.7211,-2.7225,-2.7237,0,0,0,0,0,0,-2.724,-2.7198,-2.7171,-2.721,-2.7198,-2.7166,-2.719,-2.7156,-2.7155,-2.7148,-2.7102,-2.7097,-2.713,-2.7117,-2.7088,-2.715,-2.7103,-2.7109,-2.7157,-2.717,-2.7181,-2.7184,-2.7023,0,0,0,0,0,-2.7262,-2.7273,-2.7236,-2.7274,-2.7269,-2.7231,-2.7234,-2.7205,-2.7191,-2.7187,-2.7166,-2.7155,-2.716,-2.7165,-2.7168,-2.7213,-2.7206,-2.7237,-2.7248,-2.7257,-2.7263,-2.7284,-2.7296,-2.716,-2.716,-2.716,0,0,-2.731,-2.7289,-2.7299,-2.729,-2.7278,-2.7289,-2.7228,-2.7243,-2.7251,-2.7189,-2.7212,-2.7197,-2.7181,-2.7217,-2.7232,-2.7208,-2.7299,-2.7264,-2.7272,-2.7273,-2.7291,-2.7304,-2.7315,-2.7164,-2.7163,-2.7163,0,0,-2.7403,-2.7388,-2.7417,-2.7405,-2.7386,-2.7359,-2.7366,-2.7338,-2.7324,-2.7346,-2.73,-2.7309,-2.7319,-2.7309,-2.7306,-2.7391,-2.7355,-2.7393,-2.7451,-2.7472,-2.7482,-2.7492,-2.752,-2.7531,-2.7399,-2.74,-2.74,0,-2.7465,-2.748,-2.7436,-2.7453,-2.745,-2.7393,-2.7421,-2.7412,-2.7396,-2.7395,-2.7367,-2.7377,-2.7363,-2.7394,-2.7414,-2.7414,-2.742,-2.7396,-2.7484,-2.7493,-2.7501,-2.7528,-2.7539,-2.7404,-2.7404,-2.7403,-2.7403,0,-2.7556,-2.7567,-2.7592,-2.7575,-2.7575,-2.7598,-2.7557,-2.7562,-2.7533,-2.7509,-2.7532,-2.7512,-2.7509,-2.7514,-2.7487,-2.7541,-2.7526,-2.7492,-2.7444,-2.7519,-2.7544,-2.7554,-2.7411,-2.7409,-2.7408,-2.7407,0,0,-2.7703,-2.7659,-2.7669,-2.7659,-2.7632,-2.764,-2.7659,-2.7654,-2.7658,-2.7649,-2.7663,-2.7672,-2.7639,-2.7635,-2.7606,-2.7624,-2.769,-2.7587,-2.7586,-2.7606,-2.7746,-2.7771,-2.7783,-2.7666,-2.7668,-2.7669,-2.7746,0,-2.7788,-2.7818,-2.7777,-2.7816,-2.7824,-2.7768,-2.7784,-2.777,-2.7748,-2.7751,-2.7727,-2.7733,-2.7691,-2.7687,-2.7703,-2.7679,-2.7717,-2.7673,-2.7679,-2.7679,-2.7683,-2.7796,-2.7823,-2.7897,-2.7756,-2.7758,-2.7759,0,-2.7893,-2.7885,-2.7923,-2.7891,-2.7893,-2.7908,-2.7899,-2.7903,-2.7885,-2.7867,-2.7861,-2.7825,-2.7841,-2.7794,-2.7815,-2.7786,-2.7786,-2.7774,-2.7776,-2.7775,-2.7723,-2.7797,-2.792,-2.7931,-2.7774,-2.7772,-2.7771,0,-2.7994,-2.7993,-2.8015,-2.8008,-2.7972,-2.7984,-2.7969,-2.7948,-2.7946,-2.7938,-2.7937,-2.7932,-2.7929,-2.7926,-2.7889,-2.7858,-2.7914,-2.7864,-2.7899,-2.79,-2.7913,-2.7913,-2.8037,-2.7915,-2.7915,-2.7915,-2.7915,0,-2.8093,-2.8118,-2.8059,-2.8073,-2.8099,-2.8052,-2.8079,-2.8059,-2.804,-2.8049,-2.8001,-2.801,-2.7961,-2.7965,-2.7936,-2.7957,-2.7957,-2.7942,-2.7934,-2.7946,-2.7948,-2.7945,-2.7939,-2.7918,-2.7917,-2.7917,-2.7916,0,-2.821,-2.8172,-2.8192,-2.8154,-2.8145,-2.8166,-2.8134,-2.8144,-2.8118,-2.8129,-2.8129,-2.8088,-2.809,-2.8052,-2.8048,-2.8028,-2.8061,-2.8045,-2.8067,-2.8061,-2.8097,-2.8094,-2.8224,-2.8237,-2.8108,-2.8109,-2.811,0,-2.8276,-2.8293,-2.8256,-2.8257,-2.8245,-2.8248,-2.8245,-2.8199,-2.8198,-2.8176,-2.819,-2.8187,-2.8182,-2.8187,-2.8157,-2.8153,-2.8135,-2.818,-2.8134,-2.8144,-2.8134,-2.8133,-2.8133,-2.819,-2.8192,-2.8193,-2.8194,0,-2.8396,-2.8375,-2.8372,-2.8361,-2.8358,-2.8349,-2.8336,-2.834,-2.8289,-2.8291,-2.829,-2.8286,-2.8279,-2.8277,-2.8266,-2.8251,-2.8214,-2.8209,-2.8216,-2.8228,-2.824,-2.8232,-2.8092,-2.8206,-2.8205,-2.8204,-2.8204,-2.8203,-2.8488,-2.85,-2.8474,-2.8472,-2.8457,-2.8445,-2.8452,-2.8425,-2.8423,-2.8413,-2.8386,-2.839,-2.8368,-2.8349,-2.8337,-2.834,-2.8317,-2.8329,-2.8331,-2.8335,-2.8341,-2.824,-2.8338,-2.8338,-2.8337,-2.8337,-2.8337,0,-2.8604,-2.8584,-2.8582,-2.8563,-2.8561,-2.8524,-2.8507,-2.8508,-2.8511,-2.8494,-2.8489,-2.8487,-2.8484,-2.8452,-2.8445,-2.8453,-2.8436,-2.8452,-2.8451,-2.8448,-2.8362,-2.8355,-2.8466,-2.8466,-2.8466,-2.8466,-2.8466,-2.8466,-2.8664,-2.8681,-2.8656,-2.8665,-2.8645,-2.8646,-2.8639,-2.8628,-2.8613,-2.8613,-2.8609,-2.8587,-2.8564,-2.8554,-2.8549,-2.854,-2.8539,-2.8561,-2.8546,-2.8467,-2.8454,-2.8442,-2.8436,-2.8562,-2.8562,-2.8631,-2.8632,-2.8633]}]]